Красный Октябрь

Россия / Курганская область     55°39′33″N   64°48′42″E
темп.,
°C
ветер,
м/с
пор.,
м/с
влажн.,
%
обл.,
%
осадки,
мм/ч
давл.,
гПа
погр.,
м
16 октября, сб
сб1623:00+8ю413605 0.0 1028344
02:00+7ю4136797 0.0 1026349
05:00+7ю51470100 0.0 1025392
08:00+8ю51464100 0.0 1023453
11:00+11ююз51353100 0.0 1022663
14:00+11юз4859100 0.1 10211020
17:00+6юз4886100 2.0 1021969
20:00+7юз388694 0.1 1022488
17 октября, вс
вс1723:00+4юз379112 0.1 1023172
02:00+5зюз277983 0.0 1022186
05:00+3юз26836 0.0 1023104
08:00+2зюз26835 0.0 1023126
11:00+8зюз365696 0.0 1022441
14:00+11зюз464226 0.0 10211111
17:00+8ююз365235 0.0 1020152
20:00+5юз276120 0.0 1021135
18 октября, пн
пн1823:00+4юз376612 0.0 1021115
02:00+4юз257594 0.0 102188
05:00+6юз257597 0.0 1020108
08:00+6ю2681100 0.0 1020121
11:00+11юз474870 0.0 1019358
14:00+14юз483685 0.0 1017803
17:00+12ююз3843100 0.0 1017253
20:00+10ююз41248100 0.0 1017388
19 октября, вт
вт1923:00+10ююз41149100 0.0 1017354
02:00+9ююз3953100 0.0 1016230
05:00+8ю31054100 0.0 1016222
08:00+8ююз41251100 0.0 1016310
11:00+12ююз51238100 0.0 1015502
14:00+14ююз51234100 0.0 1014792
17:00+12ююз51241100 0.0 1013574
20:00+10ю41350100 0.0 1013474
20 октября, ср
ср2023:00+9ю31152100 0.0 1012320
02:00+9ю31051100 0.0 1011283
05:00+8ю395290 0.0 1009208
08:00+7ю3854100 0.0 1008176
11:00+11ююз363976 0.0 1008427
14:00+13ююз3533100 0.0 1006723
17:00+11ююз2341100 0.0 100656
20:00+9ююз2349100 0.0 100646